Location: Proctor
(47.8934°N, 114.3048°W)
Time: 21:36:38
(UTC+00:00)

Tiros 1 despin weight - Pass Details

Date: 25 June 2024
Orbit: 576 x 620 km, 48.2° (Epoch: 19 July)

Event Time Altitude Azimuth Distance (km) Brightness Sun altitude
Rises 21:30:43 0° 273° (W) 2,894 ? 57.1°
Reaches altitude 10° 21:33:02 10° 274° (W) 1,989 ? 56.8°
Maximum altitude 21:37:38 86° 4° (N) 627 ? 56.1°
Drops below altitude 10° 21:42:12 10° 93° (E) 1,981 ? 55.5°
Sets 21:44:30 0° 94° (E) 2,882 ? 55.2°
